TimeCDT,TemperatureF,Dew PointF,Humidity,Sea Level PressureIn,VisibilityMPH,Wind Direction,Wind SpeedMPH,Gust SpeedMPH,PrecipitationIn,Events,Conditions,WindDirDegrees,DateUTC
12:43 AM,68.0,66.2,94,30.02,2.0,Calm,Calm,-,N/A,,Clear,0,2012-10-15 05:43:00
12:52 AM,69.8,66.2,88,30.02,4.0,Calm,Calm,-,N/A,,Clear,0,2012-10-15 05:52:00
12:58 AM,69.1,66.9,93,30.01,5.0,Calm,Calm,-,N/A,,Clear,0,2012-10-15 05:58:00
1:41 AM,69.8,66.2,88,30.01,2.5,SW,3.5,-,N/A,,Clear,220,2012-10-15 06:41:00
1:45 AM,69.8,66.2,88,30.01,5.0,SW,3.5,-,N/A,,Clear,220,2012-10-15 06:45:00
1:58 AM,66.9,66.0,97,29.99,5.0,SSW,3.5,-,N/A,,Clear,210,2012-10-15 06:58:00
2:07 AM,68.0,66.2,94,30.00,2.5,SW,3.5,-,N/A,,Clear,220,2012-10-15 07:07:00
2:13 AM,69.8,66.2,88,30.00,4.0,WSW,3.5,-,N/A,,Clear,240,2012-10-15 07:13:00
2:58 AM,69.1,66.9,93,29.98,7.0,Calm,Calm,-,N/A,,Clear,0,2012-10-15 07:58:00
3:58 AM,66.9,64.9,93,29.97,6.0,Calm,Calm,-,N/A,,Clear,0,2012-10-15 08:58:00
4:05 AM,66.2,64.4,94,29.98,1.8,Calm,Calm,-,N/A,,Partly Cloudy,0,2012-10-15 09:05:00
4:15 AM,66.2,64.4,94,29.98,3.0,Calm,Calm,-,N/A,,Scattered Clouds,0,2012-10-15 09:15:00
4:58 AM,64.9,63.0,93,29.97,6.0,Calm,Calm,-,N/A,,Clear,0,2012-10-15 09:58:00
5:58 AM,68.0,66.0,93,29.98,5.0,Calm,Calm,-,N/A,,Mostly Cloudy,0,2012-10-15 10:58:00
6:17 AM,66.2,66.2,100,29.99,5.0,Calm,Calm,-,N/A,,Scattered Clouds,0,2012-10-15 11:17:00
6:38 AM,66.2,66.2,100,30.00,4.0,SSW,3.5,-,N/A,,Mostly Cloudy,200,2012-10-15 11:38:00
6:43 AM,66.2,66.2,100,30.00,3.0,Calm,Calm,-,N/A,,Overcast,0,2012-10-15 11:43:00
6:47 AM,68.0,66.2,94,30.00,3.0,Calm,Calm,-,N/A,,Overcast,0,2012-10-15 11:47:00
6:56 AM,68.0,66.2,94,30.00,4.0,Calm,Calm,-,N/A,,Overcast,0,2012-10-15 11:56:00
6:58 AM,69.1,66.9,93,30.00,4.0,Calm,Calm,-,N/A,,Overcast,0,2012-10-15 11:58:00
7:58 AM,69.1,68.0,96,29.98,4.0,Calm,Calm,-,N/A,,Mostly Cloudy,0,2012-10-15 12:58:00
8:06 AM,69.8,68.0,94,29.99,5.0,Calm,Calm,-,0.00,Rain,Light Rain,0,2012-10-15 13:06:00
8:16 AM,71.6,69.8,94,30.00,6.0,Calm,Calm,-,0.00,,Mostly Cloudy,0,2012-10-15 13:16:00
8:58 AM,73.0,70.0,90,29.99,8.0,Calm,Calm,-,0.00,,Overcast,0,2012-10-15 13:58:00
9:36 AM,73.4,71.6,94,30.00,10.0,Calm,Calm,-,N/A,,Mostly Cloudy,0,2012-10-15 14:36:00
9:58 AM,75.0,70.0,84,29.99,10.0,Variable,5.8,-,N/A,,Overcast,0,2012-10-15 14:58:00
10:14 AM,75.2,69.8,83,30.00,10.0,Variable,3.5,-,N/A,,Overcast,0,2012-10-15 15:14:00
10:19 AM,75.2,69.8,83,30.00,10.0,Variable,5.8,-,N/A,,Overcast,0,2012-10-15 15:19:00
10:28 AM,78.8,69.8,74,30.00,10.0,Variable,4.6,-,N/A,,Mostly Cloudy,0,2012-10-15 15:28:00
10:51 AM,-9999,-9999,N/A,-9999,10.0,Variable,4.6,-,N/A,,Unknown,0,2012-10-15 15:51:00
10:58 AM,78.1,68.0,71,29.99,10.0,North,5.8,-,N/A,,Partly Cloudy,360,2012-10-15 15:58:00
11:58 AM,81.0,64.9,58,29.96,10.0,Variable,4.6,-,N/A,,Clear,0,2012-10-15 16:58:00
12:58 PM,82.9,64.0,53,29.94,10.0,Variable,6.9,-,N/A,,Scattered Clouds,0,2012-10-15 17:58:00
1:58 PM,82.9,60.1,46,29.91,10.0,Variable,6.9,-,N/A,,Clear,0,2012-10-15 18:58:00
2:58 PM,82.0,60.1,47,29.90,10.0,NNW,8.1,-,N/A,,Clear,340,2012-10-15 19:58:00
3:58 PM,82.0,57.0,42,29.90,10.0,Variable,6.9,-,N/A,,Clear,0,2012-10-15 20:58:00
4:58 PM,80.1,57.0,45,29.90,10.0,Variable,5.8,-,N/A,,Clear,0,2012-10-15 21:58:00
5:58 PM,75.0,59.0,57,29.91,10.0,NNW,3.5,-,N/A,,Clear,340,2012-10-15 22:58:00
6:58 PM,69.1,60.1,73,29.92,10.0,Calm,Calm,-,N/A,,Clear,0,2012-10-15 23:58:00
7:58 PM,66.0,60.1,81,29.93,10.0,Calm,Calm,-,N/A,,Clear,0,2012-10-16 00:58:00
8:58 PM,66.0,57.0,73,29.95,10.0,Calm,Calm,-,N/A,,Clear,0,2012-10-16 01:58:00
9:58 PM,64.9,55.0,70,29.96,10.0,Calm,Calm,-,N/A,,Clear,0,2012-10-16 02:58:00
10:58 PM,63.0,54.0,72,29.96,10.0,Calm,Calm,-,N/A,,Clear,0,2012-10-16 03:58:00
11:58 PM,61.0,53.1,75,29.97,10.0,NNW,4.6,-,N/A,,Clear,340,2012-10-16 04:58:00